Tracking 30995 objects as of 7-Jul-2025
HD Live streaming from Space Station
objects crossing your sky now

TITAN 3C TRANSTAGE DEB

Track TITAN 3C TRANSTAGE DEB now!
10-day predictions


NORAD ID: 1642
Int'l Code: 1965-082D
Perigee: 608.7 km
Apogee: 641.5 km
Inclination: 32.1 °
Period: 97.1 minutes
Semi major axis: 6996 km
RCS: 2.2943 m2 (large)
Launch date: October 15, 1965
Source: United States (US)
Launch site: AIR FORCE EASTERN TEST RANGE (AFETR)

Note: This is SATELLITE DEBRIS
Your satellite tracking list
EUTE 9A (HB 7A)
Track 1 satellite(s)




NASA's NSSDC Master Catalog

Two Line Element Set (TLE):
1 01642U 65082D   25187.19441844  .00000875  00000-0  98023-4 0  9998
2 01642  32.0921 144.5910 0023448 338.0640  21.9006 14.83609763186146
Source of the keplerian elements: AFSPC